Location: Gibsondale
(40.9931°N, 80.2478°W)
Time: 23:19:58
(UTC+00:00)

CZ-4B R/B - Pass Details

Date: 29 October 2020
Orbit: 388 x 461 km, 97.6° (Epoch: 29 November)

Event Time Altitude Azimuth Distance (km) Brightness Sun altitude
Rises 23:20:36 0° 4° (N) 2,375 4.9 -12.0°
Reaches altitude 10° 23:22:42 10° 357° (N) 1,492 4.0 -12.4°
Maximum altitude 23:25:41 38° 287° (WNW) 636 2.7 -13.0°
Drops below altitude 10° 23:28:35 10° 217° (SW) 1,447 4.6 -13.5°
Sets 23:30:35 0° 209° (SSW) 2,290 5.5 -13.9°
